Florence, MS (39073)

9:15 PM CST on March 02, 2015 (GMT -0600)
Whites Cove | Change Station
CLOSE
Current Station
Personal Weather Station
Location: Florence, MS
Elevation: 322 ft
Nearby Weather Stations
Active Advisory: Dense Fog Advisory

Elev 322 ft 32.14 °N, 90.14 °W | Updated 8 minutes ago

Fog
Fog
52.7 °F
Feels Like 52.7 °F
N
0.0
Wind Variable Wind from East
Gusts 0.0 mph

Today
High -- | Low -- °F
--% Chance of Precip.
Yesterday
High -- | Low -- °F
Precip. -- in
6:26 AM 5:58 PM
Waxing Gibbous, 94% visible
Pressure 30.23 in
Visibility 0.5 miles
Clouds Overcast 200 ft
Dew Point 53 °F
Humidity 100%
Rainfall 0.45 in
Snow Depth Not available.
UV 0 out of 12
Pollen 3.20 out of 12
Air Quality Not available.
Flu Activity Not available.
METAR KJAN 030254Z 02003KT 1/2SM R16L/P6000FT FG OVC002 11/11 A3023 RMK AO2 SLP237 T01110111 50003

More Conditions Fewer Conditions

Pressure 30.23 in
Visibility 0.5 miles
Clouds Overcast 200 ft
Dew Point 53 °F
Humidity 100%
Rainfall 0.45 in
Snow Depth Not available.
UV 0 out of 12
Pollen 3.20 out of 12
Air Quality Not available.
Flu Activity Not available.
METAR KJAN 030254Z 02003KT 1/2SM R16L/P6000FT FG OVC002 11/11 A3023 RMK AO2 SLP237 T01110111 50003

More Conditions Fewer Conditions

10-Day Weather Forecast

Almanac

Astronomy

Mar. 02, 2015 Rise Set
Actual Time
Civil Twilight
Nautical Twilight
Astronomical Twilight
Moon
Length of Visible Light
Length of Day
Tomorrow will be .
, % of the Moon is Illuminated

Today's Extremes

State Highs State Lows

Community

WunderPhotos

Upload Photos

1,802,057 photos uploaded!

WunderBlogs® & News

Nearby

Air Quality

  Air Quality AQ Index Pollutant
Not available.

Snow Depth

Station Depth Elevation

Earthquake Activity

City Distance Mag. Time & Date
Minimum magnitude displayed is 2.5.

Coastal Water Temperatures

Place Temperature

Nearby Weather Stations

Dense Fog Advisory
Statement as of 9:03 PM CST on March 02, 2015

... Dense fog advisory remains in effect until 9 am CST Tuesday...

A dense fog advisory remains in effect until 9 am CST Tuesday.

* Visibility... less than one-quarter of a mile

* impacts... reduced visibility will create hazardous travel.
Local fluctuations in visibility can be expected... .so
motorists may encounter rapid visibility reductions.

Precautionary/preparedness actions...

A dense fog advisory means visibilities will frequently be
reduced to less than one quarter mile. If driving... slow down...
use your headlights... and leave plenty of distance ahead of you.